EW8682 Weather Reports


Display with metric or nautical units.
time (UTC)temp
F
wind
direction
speed
MPH
gust
MPH
rain 1hr
in
rain 24hr
in
rain mn
in
humidity
%
barometer
mb
20260507113040 56 331 1.0 3.0 0.00 0.00 0.00 70 1007.9
20260507111541 57 329 0.0 4.0 0.00 0.00 0.00 69 1008.0
20260507110035 58 326 0.0 3.0 0.00 0.00 0.00 68 1008.0
20260507104535 58 46 1.0 3.0 0.00 0.00 0.00 69 1008.1
20260507103030 58 47 2.0 4.0 0.00 0.00 0.00 70 1008.2
20260507101544 58 43 1.0 4.0 0.00 0.00 0.00 72 1008.3
20260507100033 58 48 2.0 4.0 0.00 0.00 0.00 72 1008.4
20260507094525 58 11 2.0 4.0 0.00 0.00 0.00 74 1008.4
20260507093028 56 19 2.0 4.0 0.00 0.00 0.00 77 1008.5
20260507091544 56 46 1.0 3.0 0.00 0.00 0.00 80 1008.7
20260507090018 55 49 1.0 3.0 0.00 0.00 0.00 82 1008.8
20260507084517 54 53 0.0 2.0 0.00 0.00 0.00 83 1009.1
20260507083016 55 48 0.0 2.0 0.00 0.00 0.00 82 1009.2
20260507081511 55 48 0.0 1.0 0.00 0.00 0.00 81 1009.3
20260507080008 56 49 0.0 1.0 0.00 0.00 0.00 79 1009.4
20260507074510 57 49 0.0 3.0 0.00 0.00 0.00 78 1009.5
20260507073005 57 48 1.0 4.0 0.00 0.00 0.00 78 1009.3
20260507071507 57 47 1.0 3.0 0.00 0.00 0.00 79 1009.3
20260507070002 57 51 1.0 3.0 0.00 0.00 0.00 78 1009.3
20260507064603 58 52 1.0 3.0 0.00 0.00 0.00 78 1009.4
20260507063103 58 53 1.0 2.0 0.00 0.00 0.00 78 1009.4
20260507061559 58 54 0.0 5.0 0.00 0.00 0.00 79 1009.3
20260507060058 56 171 0.0 2.0 0.00 0.00 0.00 80 1009.4
20260507054617 57 171 1.0 2.0 0.00 0.00 0.00 80 1009.4
20260507053057 57 171 0.0 2.0 0.00 0.00 0.00 79 1009.4
20260507051557 57 171 1.0 2.0 0.00 0.00 0.00 80 1009.4
20260507044601 57 171 0.0 2.0 0.00 0.00 0.00 77 1009.3
20260507043055 58 173 1.0 3.0 0.00 0.00 0.00 76 1009.2
20260507041555 58 174 1.0 3.0 0.00 0.00 0.00 74 1009.1
20260507040054 59 174 0.0 1.0 0.00 0.00 0.00 73 1009.0
20260507034553 60 174 0.0 2.0 0.00 0.00 0.00 71 1008.8
20260507033053 61 174 1.0 3.0 0.00 0.00 0.00 69 1008.7
20260507031553 63 175 0.0 2.0 0.00 0.00 0.00 64 1008.6
20260507030100 65 175 0.0 0.0 0.00 0.00 0.00 61 1008.4
20260507024552 66 175 0.0 3.0 0.00 0.00 0.00 60 1008.3
20260507023051 66 175 0.0 4.0 0.00 0.00 0.00 59 1008.2
20260507021607 67 176 3.0 6.0 0.00 0.00 0.00 57 1008.0
20260507020056 69 194 1.0 5.0 0.00 0.00 0.00 55 1007.8
20260507014609 69 175 1.0 5.0 0.00 0.00 0.00 54 1007.7
20260507013052 70 176 2.0 5.0 0.00 0.00 0.00 53 1007.7
20260507011546 71 175 1.0 6.0 0.00 0.00 0.00 51 1007.6
20260507010059 71 173 3.0 5.0 0.00 0.00 0.00 51 1007.5
20260507004547 72 175 0.0 6.0 0.00 0.00 0.00 50 1007.5
20260507003042 73 174 2.0 8.0 0.00 0.00 0.00 48 1007.6
20260507001541 75 178 2.0 8.0 0.00 0.00 0.00 46 1007.4
20260507000043 75 169 3.0 5.0 0.00 0.00 0.00 45 1007.3
20260506234541 75 182 2.0 6.0 0.00 0.00 0.00 46 1007.4
20260506233038 75 193 3.0 6.0 0.00 0.00 0.00 45 1007.4
20260506231536 76 170 3.0 8.0 0.00 0.00 0.00 44 1007.4
20260506230036 77 180 1.0 8.0 0.00 0.00 0.00 43 1007.6
20260506224536 76 175 2.0 8.0 0.00 0.00 0.00 44 1007.7
20260506223031 76 172 3.0 8.0 0.00 0.00 0.00 44 1007.9
20260506221531 76 242 1.0 9.0 0.00 0.00 0.00 44 1008.1
20260506220030 76 217 3.0 8.0 0.00 0.00 0.00 43 1008.3
20260506214523 75 190 0.0 7.0 0.00 0.00 0.00 44 1008.5
20260506213020 75 182 3.0 7.0 0.00 0.00 0.00 44 1008.7
20260506211518 75 173 2.0 8.0 0.00 0.00 0.00 43 1008.8
20260506210016 75 179 2.0 6.0 0.00 0.00 0.00 43 1009.0
20260506204513 74 202 3.0 7.0 0.00 0.00 0.00 43 1009.1
20260506203010 74 194 3.0 6.0 0.00 0.00 0.00 44 1009.2
20260506201509 74 197 3.0 6.0 0.00 0.00 0.00 45 1009.4
20260506200004 73 276 3.0 9.0 0.00 0.00 0.00 45 1009.7
20260506194501 71 197 2.0 5.0 0.00 0.00 0.00 47 1009.8
20260506193058 70 234 1.0 7.0 0.00 0.00 0.00 48 1010.0
20260506191558 70 222 3.0 9.0 0.00 0.00 0.00 49 1010.2
20260506190051 69 187 0.0 5.0 0.00 0.00 0.00 52 1010.2
20260506184552 68 192 1.0 7.0 0.00 0.00 0.00 51 1010.3
20260506183044 67 200 0.0 4.0 0.00 0.00 0.00 53 1010.4
20260506181540 66 194 2.0 6.0 0.00 0.00 0.00 55 1010.6
20260506180036 65 179 1.0 6.0 0.00 0.00 0.00 55 1010.6
20260506174531 64 208 2.0 6.0 0.00 0.00 0.00 57 1010.7
20260506173028 63 215 1.0 5.0 0.00 0.00 0.00 58 1010.8
20260506171527 61 190 1.0 4.0 0.00 0.00 0.00 60 1010.7
20260506170022 61 180 1.0 6.0 0.00 0.00 0.00 62 1010.6
20260506164519 60 181 1.0 4.0 0.00 0.00 0.00 63 1010.6
20260506163030 59 198 1.0 3.0 0.00 0.00 0.00 65 1010.5
20260506161513 58 223 1.0 3.0 0.00 0.00 0.00 67 1010.7
20260506160014 57 189 1.0 5.0 0.00 0.00 0.00 68 1010.6
20260506154506 56 205 0.0 3.0 0.00 0.00 0.00 72 1010.7
20260506153001 55 248 0.0 2.0 0.00 0.00 0.00 74 1010.6
20260506151559 54 329 0.0 2.0 0.00 0.00 0.00 77 1010.7
20260506150055 53 346 0.0 2.0 0.00 0.00 0.00 79 1010.8
20260506144553 52 347 0.0 1.0 0.00 0.00 0.00 83 1010.8
20260506143051 50 346 1.0 2.0 0.00 0.00 0.00 86 1010.7
20260506141554 48 344 1.0 3.0 0.00 0.00 0.00 87 1010.7
20260506140054 48 343 0.0 2.0 0.00 0.00 0.00 86 1010.5
20260506134544 48 343 1.0 2.0 0.00 0.00 0.00 85 1010.3
20260506133042 47 343 1.0 2.0 0.00 0.00 0.00 84 1010.3
20260506131540 48 343 1.0 2.0 0.00 0.00 0.00 82 1010.2
20260506130036 49 343 0.0 2.0 0.00 0.00 0.00 81 1010.0
20260506124534 49 342 0.0 3.0 0.00 0.00 0.00 79 1009.9
20260506123033 50 338 0.0 4.0 0.00 0.00 0.00 78 1009.7
20260506121533 50 323 0.0 3.0 0.00 0.00 0.00 78 1009.7
20260506120034 50 321 1.0 3.0 0.00 0.00 0.00 77 1009.7
20260506114531 51 321 0.0 3.0 0.00 0.00 0.00 76 1009.7